When you browse on this site, cookies collect data to enhance your experience and personalize the content and advertising you see.
Visit our Privacy Policy to learn more. By continuing to use the site, you agree to this use of cookies and data.
  • In Hungary
  • List of Countries
  • For 7 days
  • Water Temperature
  • Weather Map
  • News
  • Weather Widgets
  • user-avatar
    Login

    Hourly Weather Navahrudak

    Today, 8 December, Sunday

    Time Temperature Precipitation Wind Pressure Humidity
    00:00 +2°C° 0.1 mm 7 mps 729 mmHg 86%
    01:00 0°C° 0.1 mm 7 mps 729 mmHg 83%
    02:00 +1°C° 0 mm 6 mps 729 mmHg 78%
    03:00 -1°C° 0 mm 6 mps 730 mmHg 82%
    04:00 -1°C° 0 mm 6 mps 730 mmHg 85%
    05:00 -1°C° 0 mm 7 mps 730 mmHg 89%
    06:00 -1°C° 0 mm 6 mps 730 mmHg 90%
    07:00 -2°C° 0 mm 6 mps 731 mmHg 90%
    08:00 -1°C° 0 mm 5 mps 732 mmHg 91%
    09:00 0°C° 0 mm 5 mps 732 mmHg 91%
    10:00 0°C° 0 mm 5 mps 732 mmHg 90%
    11:00 0°C° 0 mm 5 mps 732 mmHg 90%
    12:00 +1°C° 0 mm 5 mps 732 mmHg 89%
    13:00 +1°C° 0 mm 5 mps 732 mmHg 88%
    14:00 +2°C° 0 mm 5 mps 731 mmHg 87%
    15:00 +2°C° 0 mm 6 mps 731 mmHg 88%
    16:00 +2°C° 0 mm 6 mps 730 mmHg 88%
    17:00 +2°C° 0 mm 6 mps 730 mmHg 88%
    18:00 +2°C° 0 mm 7 mps 730 mmHg 86%
    19:00 +2°C° 0 mm 7 mps 730 mmHg 83%
    20:00 +2°C° 0 mm 7 mps 729 mmHg 81%
    21:00 +2°C° 0 mm 7 mps 729 mmHg 81%
    22:00 +2°C° 0 mm 7 mps 728 mmHg 82%
    23:00 +2°C° 0 mm 7 mps 728 mmHg 82%

    Tomorrow, 9 December, Monday

    Time Temperature Precipitation Wind Pressure Humidity
    00:00 +2°C° 0.4 mm 7 mps 728 mmHg 84%
    01:00 +2°C° 0.4 mm 7 mps 728 mmHg 86%
    02:00 +2°C° 0.4 mm 7 mps 728 mmHg 88%
    03:00 +2°C° 0.5 mm 7 mps 728 mmHg 89%
    04:00 +2°C° 0.5 mm 6 mps 727 mmHg 90%
    05:00 +3°C° 0.5 mm 6 mps 727 mmHg 91%
    06:00 +3°C° 0 mm 6 mps 727 mmHg 90%
    07:00 +3°C° 0 mm 6 mps 727 mmHg 89%
    08:00 +3°C° 0 mm 6 mps 728 mmHg 89%
    09:00 +3°C° 0.3 mm 6 mps 728 mmHg 89%
    10:00 +3°C° 0.3 mm 6 mps 728 mmHg 90%
    11:00 +3°C° 0.3 mm 6 mps 728 mmHg 91%
    12:00 +3°C° 0.1 mm 6 mps 728 mmHg 89%
    13:00 +3°C° 0.1 mm 6 mps 728 mmHg 87%
    14:00 +5°C° 0.1 mm 5 mps 728 mmHg 86%
    15:00 +5°C° 0 mm 5 mps 728 mmHg 87%
    16:00 +3°C° 0 mm 5 mps 728 mmHg 88%
    17:00 +4°C° 0 mm 4 mps 728 mmHg 89%
    18:00 +4°C° 0 mm 4 mps 729 mmHg 90%
    19:00 +3°C° 0 mm 4 mps 729 mmHg 92%
    20:00 +3°C° 0 mm 4 mps 730 mmHg 93%
    21:00 +3°C° 0 mm 4 mps 730 mmHg 93%
    22:00 +1°C° 0 mm 4 mps 730 mmHg 93%
    23:00 +1°C° 0 mm 4 mps 730 mmHg 93%

    Day after tomorrow, 10 December, Tuesday

    Time Temperature Precipitation Wind Pressure Humidity
    00:00 +1°C° 0 mm 4 mps 731 mmHg 93%
    01:00 +2°C° 0 mm 3 mps 731 mmHg 93%
    02:00 +1°C° 0 mm 3 mps 731 mmHg 93%
    03:00 0°C° 0 mm 4 mps 731 mmHg 92%
    04:00 0°C° 0 mm 4 mps 731 mmHg 92%
    05:00 0°C° 0 mm 4 mps 732 mmHg 92%
    06:00 0°C° 0 mm 4 mps 732 mmHg 92%
    07:00 0°C° 0 mm 3 mps 732 mmHg 93%
    08:00 0°C° 0 mm 3 mps 733 mmHg 94%
    09:00 +1°C° 0 mm 3 mps 733 mmHg 93%
    10:00 +1°C° 0 mm 3 mps 734 mmHg 91%
    11:00 +1°C° 0 mm 4 mps 734 mmHg 90%
    12:00 +1°C° 0 mm 4 mps 735 mmHg 89%
    13:00 +2°C° 0 mm 3 mps 735 mmHg 89%
    14:00 +3°C° 0 mm 3 mps 736 mmHg 89%
    15:00 +2°C° 0 mm 3 mps 736 mmHg 88%
    16:00 +2°C° 0 mm 3 mps 736 mmHg 87%
    17:00 +2°C° 0 mm 3 mps 737 mmHg 87%
    18:00 +1°C° 0 mm 4 mps 737 mmHg 86%
    19:00 +1°C° 0 mm 4 mps 738 mmHg 85%
    20:00 +1°C° 0 mm 4 mps 739 mmHg 84%
    21:00 +1°C° 0 mm 3 mps 739 mmHg 85%
    22:00 +1°C° 0 mm 3 mps 740 mmHg 87%
    23:00 0°C° 0 mm 3 mps 740 mmHg 88%

    11 December, Wednesday

    Time Temperature Precipitation Wind Pressure Humidity
    00:00 +1°C° 0 mm 2 mps 740 mmHg 89%
    01:00 +1°C° 0 mm 2 mps 741 mmHg 89%
    02:00 +1°C° 0 mm 2 mps 741 mmHg 90%
    03:00 +2°C° 0 mm 1 mps 741 mmHg 89%
    04:00 +2°C° 0 mm 1 mps 742 mmHg 88%
    05:00 +2°C° 0 mm 1 mps 742 mmHg 87%
    06:00 +2°C° 0 mm 1 mps 742 mmHg 87%
    07:00 +2°C° 0 mm 1 mps 742 mmHg 87%
    08:00 +2°C° 0 mm 1 mps 742 mmHg 87%
    09:00 +1°C° 0 mm 2 mps 742 mmHg 85%
    10:00 +2°C° 0 mm 2 mps 743 mmHg 84%
    11:00 +2°C° 0 mm 2 mps 743 mmHg 82%
    12:00 +2°C° 0 mm 2 mps 742 mmHg 79%
    13:00 +1°C° 0 mm 3 mps 742 mmHg 75%
    14:00 +2°C° 0 mm 3 mps 742 mmHg 72%
    15:00 +1°C° 0 mm 3 mps 742 mmHg 76%
    16:00 0°C° 0 mm 3 mps 741 mmHg 80%
    17:00 -1°C° 0 mm 3 mps 741 mmHg 85%
    18:00 -1°C° 0 mm 3 mps 741 mmHg 85%
    19:00 -2°C° 0 mm 3 mps 741 mmHg 85%
    20:00 -3°C° 0 mm 4 mps 741 mmHg 86%
    21:00 -3°C° 0 mm 4 mps 741 mmHg 86%
    22:00 -3°C° 0 mm 4 mps 741 mmHg 85%
    23:00 -3°C° 0 mm 4 mps 740 mmHg 85%

    12 December, Thursday

    Time Temperature Precipitation Wind Pressure Humidity
    00:00 -3°C° 0 mm 4 mps 740 mmHg 85%
    01:00 -4°C° 0 mm 5 mps 739 mmHg 85%
    02:00 -4°C° 0 mm 5 mps 739 mmHg 86%
    03:00 -4°C° 0 mm 5 mps 738 mmHg 87%
    04:00 -4°C° 0 mm 5 mps 738 mmHg 89%
    05:00 -4°C° 0 mm 5 mps 737 mmHg 91%
    06:00 -3°C° 0 mm 6 mps 737 mmHg 91%
    07:00 -3°C° 0 mm 6 mps 737 mmHg 92%
    08:00 -3°C° 0 mm 6 mps 737 mmHg 93%
    09:00 -3°C° 0 mm 6 mps 737 mmHg 91%
    10:00 -2°C° 0 mm 6 mps 737 mmHg 89%
    11:00 -2°C° 0 mm 6 mps 736 mmHg 87%
    12:00 -2°C° 0 mm 6 mps 736 mmHg 87%
    13:00 -2°C° 0 mm 6 mps 736 mmHg 87%
    14:00 0°C° 0 mm 5 mps 736 mmHg 87%
    15:00 0°C° 0 mm 5 mps 736 mmHg 88%
    16:00 -1°C° 0 mm 5 mps 735 mmHg 88%
    17:00 -1°C° 0 mm 4 mps 735 mmHg 88%
    18:00 -1°C° 0 mm 4 mps 735 mmHg 90%
    19:00 -1°C° 0 mm 4 mps 735 mmHg 91%
    20:00 -1°C° 0 mm 4 mps 735 mmHg 92%
    21:00 -1°C° 0 mm 4 mps 735 mmHg 94%
    22:00 -1°C° 0 mm 4 mps 735 mmHg 95%
    23:00 -1°C° 0 mm 4 mps 735 mmHg 96%

    13 December, Friday

    Time Temperature Precipitation Wind Pressure Humidity
    00:00 -1°C° 0 mm 4 mps 735 mmHg 96%
    01:00 -1°C° 0 mm 4 mps 735 mmHg 96%
    02:00 -1°C° 0 mm 4 mps 734 mmHg 95%
    03:00 -2°C° 0 mm 4 mps 734 mmHg 95%
    04:00 -2°C° 0 mm 4 mps 734 mmHg 95%
    05:00 -2°C° 0 mm 4 mps 733 mmHg 95%
    06:00 -2°C° 0 mm 4 mps 733 mmHg 94%
    07:00 -2°C° 0 mm 4 mps 732 mmHg 93%
    08:00 -2°C° 0 mm 4 mps 732 mmHg 92%
    09:00 -2°C° 0 mm 5 mps 732 mmHg 90%
    10:00 -2°C° 0 mm 6 mps 731 mmHg 87%
    11:00 -1°C° 0 mm 6 mps 731 mmHg 85%
    12:00 -1°C° 0 mm 6 mps 730 mmHg 84%
    13:00 -1°C° 0 mm 7 mps 729 mmHg 83%
    14:00 -1°C° 0 mm 7 mps 728 mmHg 82%
    15:00 -1°C° 0 mm 7 mps 728 mmHg 82%
    16:00 -1°C° 0 mm 8 mps 727 mmHg 82%
    17:00 -1°C° 0 mm 8 mps 727 mmHg 82%
    18:00 0°C° 0 mm 8 mps 727 mmHg 81%
    19:00 0°C° 0 mm 8 mps 726 mmHg 80%
    20:00 0°C° 0 mm 8 mps 726 mmHg 80%
    21:00 0°C° 0 mm 8 mps 726 mmHg 80%
    22:00 0°C° 0 mm 8 mps 726 mmHg 81%
    23:00 -1°C° 0 mm 7 mps 725 mmHg 81%
    Show more